Home > Weather > Stavern > Past weeks

Flag for Norway Past Weather in Stavern, Norway — Yesterday and Last 2 Weeks

Now
54 °F

Sunny.


Feels Like: 51 °F
Forecast: 51 / 61 °F
Wind: 9 mph from North

Location: Torp

Current Time: May 27, 2016 at 6:37:47 AM

Latest Report: May 27, 2016 at 5:50 AM


Visibility: 10 mi

Pressure: 30.09 "Hg

Humidity: 72%

Dew Point: 45 °F

Location of StavernLocation

Past Weather in Stavern — Graph

°F

Stavern Temperature Yesterday

Maximum temperature yesterday: 64 °F (at 4:20 PM)
Minimum temperature yesterday: 46 °F (at 3:50 AM)
Average temperature yesterday: 56 °F

High & Low Weather Summary for the Past Weeks

 TemperatureHumidityPressure
High64 °F (May 26, 4:20 PM)100% (May 12, 11:50 PM)30.15 "Hg (May 12, 11:50 PM)
Low37 °F (May 17, 5:20 AM)29% (May 15, 6:20 PM)29.62 "Hg (May 13, 6:50 PM)
Average52 °F74%29.83 "Hg
* Reported May 12 5:20 AM — May 27 5:20 AM, Stavern, Weather by CustomWeather, © 2016

Note: Actual official high and low records may vary slightly from our data, if they occured in-between our weather recording intervals... More about our weather records

Advertising

Stavern Weather History for the Previous 24 Hours

Scroll right to see more
 ConditionsComfort  
Time TempWeatherWind HumidityBarometerVisibility
5:20 AM
Fri, May 27
54 °FOvercast.9 mph72%30.09 "HgN/A
4:50 AM54 °FOvercast.8 mph72%30.09 "HgN/A
4:20 AM52 °FPassing clouds.7 mph77%30.09 "HgN/A
3:50 AM52 °FPassing clouds.8 mph77%30.09 "HgN/A
3:20 AM52 °FPartly cloudy.7 mph77%30.09 "HgN/A
2:50 AM54 °FOvercast.9 mph72%30.09 "HgN/A
2:20 AM52 °FPartly cloudy.6 mph77%30.09 "HgN/A
1:50 AM52 °FPassing clouds.7 mph77%30.12 "HgN/A
1:20 AM54 °FOvercast.8 mph72%30.12 "HgN/A
12:50 AM55 °FPassing clouds.7 mph67%30.12 "HgN/A
12:20 AM55 °FPassing clouds.8 mph67%30.12 "HgN/A
11:50 PM
Thu, May 26
57 °FOvercast.6 mph63%30.09 "HgN/A
11:20 PM57 °FOvercast.6 mph59%30.09 "HgN/A
10:50 PM57 °FSunny.6 mph59%30.09 "Hg10 mi
10:20 PM59 °FPassing clouds.5 mph55%30.09 "HgN/A
9:50 PM61 °FPassing clouds.7 mph52%30.09 "HgN/A
9:20 PM61 °FPassing clouds.7 mph48%30.07 "HgN/A
8:50 PM63 °FPassing clouds.7 mph42%30.07 "HgN/A
8:20 PM64 °FPassing clouds.7 mph40%30.07 "HgN/A
7:50 PM63 °FSunny.8 mph42%30.04 "Hg10 mi
7:20 PM64 °FPassing clouds.8 mph40%30.04 "HgN/A
6:50 PM64 °FPassing clouds.8 mph37%30.04 "HgN/A
6:20 PM64 °FPassing clouds.6 mph37%30.07 "HgN/A
5:50 PM64 °FPassing clouds.7 mph37%30.07 "HgN/A
5:20 PM64 °FPassing clouds.8 mph37%30.07 "HgN/A
4:50 PM64 °FPassing clouds.9 mph37%30.07 "HgN/A
4:20 PM64 °FPassing clouds.8 mph34%30.07 "HgN/A
3:50 PM63 °FPassing clouds.9 mph37%30.07 "HgN/A
3:20 PM63 °FPassing clouds.12 mph34%30.07 "HgN/A
2:50 PM63 °FPassing clouds.10 mph34%30.07 "HgN/A
2:20 PM61 °FSunny.8 mph39%30.07 "Hg10 mi
1:50 PM61 °FPassing clouds.8 mph39%30.07 "HgN/A
1:20 PM61 °FSunny.13 mph36%30.09 "Hg10 mi
12:50 PM61 °FPassing clouds.13 mph39%30.09 "HgN/A
12:20 PM59 °FPassing clouds.14 mph42%30.09 "HgN/A
11:50 AM59 °FSunny.15 mph36%30.09 "Hg10 mi
11:20 AM59 °FSunny.15 mph42%30.09 "Hg10 mi
10:50 AM57 °FSunny.15 mph41%30.09 "Hg10 mi
10:20 AM55 °FPassing clouds.13 mph51%30.09 "HgN/A
9:50 AM55 °FPassing clouds.12 mph51%30.12 "HgN/A
9:20 AM54 °FSunny.12 mph54%30.12 "Hg10 mi
8:50 AM54 °FSunny.13 mph54%30.12 "Hg10 mi
8:20 AM52 °FSunny.13 mph58%30.12 "Hg10 mi
7:50 AM52 °FSunny.13 mph58%30.12 "Hg10 mi
7:20 AM50 °FSunny.9 mph62%30.12 "Hg10 mi
6:50 AM48 °FPassing clouds.6 mph66%30.12 "HgN/A
6:20 AM48 °FSunny.5 mph66%30.12 "Hg10 mi
Weather by CustomWeather, © 2016

See weather overviewHow to use our weather pages